| time (UTC) | temp C | wind direction | speed KPH | gust KPH | rain 1hr cm | rain 24hr cm | rain mn cm | humidity % | barometer mb |
| 20260831232239 | 18 | 77 | 0.0 | 0.0 | 0.00 | 0.99 | 0.00 | 75 | 1015.3 |
| 20260831231739 | 18 | 77 | 0.0 | 3.2 | 0.00 | 0.99 | 0.00 | 75 | 1015.3 |
| 20260831231239 | 18 | 52 | 0.0 | 3.2 | 0.00 | 0.99 | 0.00 | 75 | 1015.3 |
| 20260831230738 | 18 | 91 | 0.0 | 0.0 | 0.00 | 0.99 | 0.00 | 75 | 1015.3 |
| 20260831230238 | 18 | 91 | 0.0 | 0.0 | 0.00 | 0.99 | 0.00 | 74 | 1015.3 |
| 20260831225738 | 18 | 91 | 0.0 | 0.0 | 0.00 | 0.99 | 0.00 | 74 | 1015.3 |
| 20260831225238 | 18 | 91 | 0.0 | 0.0 | 0.00 | 0.99 | 0.00 | 74 | 1015.3 |
| 20260831224737 | 19 | 71 | 0.0 | 6.4 | 0.00 | 0.99 | 0.00 | 74 | 1015.3 |
| 20260831224237 | 19 | 140 | 0.0 | 3.2 | 0.00 | 0.99 | 0.00 | 73 | 1015.3 |
| 20260831223737 | 19 | 326 | 0.0 | 3.2 | 0.00 | 0.99 | 0.00 | 73 | 1015.3 |
| 20260831223236 | 19 | 340 | 0.0 | 1.6 | 0.00 | 0.99 | 0.00 | 73 | 1015.2 |
| 20260831222736 | 19 | 35 | 0.0 | 0.0 | 0.00 | 0.99 | 0.00 | 73 | 1015.1 |
| 20260831222236 | 19 | 35 | 0.0 | 0.0 | 0.00 | 0.99 | 0.00 | 73 | 1015.0 |
| 20260831221736 | 19 | 35 | 0.0 | 0.0 | 0.00 | 0.99 | 0.00 | 72 | 1015.0 |
| 20260831221235 | 19 | 35 | 0.0 | 0.0 | 0.00 | 0.99 | 0.00 | 72 | 1015.0 |
| 20260831220735 | 19 | 46 | 0.0 | 0.0 | 0.00 | 0.99 | 0.00 | 72 | 1015.0 |
| 20260831220235 | 19 | 46 | 0.0 | 3.2 | 0.00 | 0.99 | 0.00 | 72 | 1015.0 |
| 20260831215734 | 19 | 21 | 0.0 | 3.2 | 0.00 | 0.99 | 0.00 | 72 | 1015.0 |
| 20260831215234 | 19 | 105 | 0.0 | 4.8 | 0.00 | 0.99 | 0.00 | 72 | 1015.0 |
| 20260831214734 | 19 | 37 | 0.0 | 0.0 | 0.00 | 0.99 | 0.00 | 72 | 1014.9 |
| 20260831214234 | 19 | 37 | 0.0 | 3.2 | 0.00 | 0.99 | 0.00 | 72 | 1015.0 |
| 20260831213733 | 19 | 77 | 0.0 | 6.4 | 0.00 | 0.99 | 0.00 | 71 | 1014.9 |
| 20260831213237 | 20 | 92 | 3.2 | 3.2 | 0.00 | 0.99 | 0.00 | 71 | 1014.8 |
| 20260831212733 | 20 | 14 | 0.0 | 0.0 | 0.00 | 0.99 | 0.99 | 71 | 1014.7 |
| 20260831212232 | 19 | 14 | 0.0 | 3.2 | 0.00 | 0.99 | 0.99 | 71 | 1014.8 |
| 20260831211732 | 20 | 355 | 0.0 | 6.4 | 0.00 | 0.99 | 0.99 | 71 | 1014.7 |
| 20260831211232 | 20 | 88 | 1.6 | 6.4 | 0.00 | 0.99 | 0.99 | 71 | 1014.6 |
| 20260831210732 | 20 | 21 | 0.0 | 4.8 | 0.00 | 0.99 | 0.99 | 71 | 1014.5 |
| 20260831210231 | 20 | 104 | 4.8 | 4.8 | 0.00 | 0.99 | 0.99 | 72 | 1014.5 |
| 20260831205731 | 20 | 333 | 0.0 | 6.4 | 0.00 | 0.99 | 0.99 | 71 | 1014.5 |
| 20260831205231 | 20 | 77 | 0.0 | 4.8 | 0.00 | 0.99 | 0.99 | 71 | 1014.4 |
| 20260831204730 | 20 | 75 | 0.0 | 1.6 | 0.00 | 0.99 | 0.99 | 72 | 1014.4 |
| 20260831204230 | 20 | 81 | 1.6 | 3.2 | 0.00 | 0.99 | 0.99 | 71 | 1014.3 |
| 20260831203730 | 20 | 30 | 0.0 | 1.6 | 0.00 | 0.99 | 0.99 | 71 | 1014.2 |
| 20260831203230 | 20 | 30 | 0.0 | 4.8 | 0.00 | 0.99 | 0.99 | 71 | 1014.3 |
| 20260831202729 | 20 | 57 | 0.0 | 3.2 | 0.00 | 0.99 | 0.99 | 71 | 1014.2 |
| 20260831202229 | 20 | 46 | 0.0 | 6.4 | 0.00 | 0.99 | 0.99 | 71 | 1014.1 |
| 20260831201729 | 20 | 47 | 0.0 | 6.4 | 0.00 | 0.99 | 0.99 | 71 | 1014.0 |
| 20260831201228 | 20 | 75 | 0.0 | 1.6 | 0.00 | 0.99 | 0.99 | 71 | 1013.9 |
| 20260831200728 | 20 | 344 | 0.0 | 1.6 | 0.00 | 0.99 | 0.99 | 71 | 1013.8 |
| 20260831200228 | 20 | 351 | 0.0 | 3.2 | 0.00 | 0.99 | 0.99 | 71 | 1013.9 |
| 20260831195728 | 20 | 348 | 0.0 | 0.0 | 0.00 | 0.99 | 0.99 | 71 | 1013.8 |
| 20260831195227 | 20 | 348 | 0.0 | 0.0 | 0.00 | 0.99 | 0.99 | 71 | 1013.7 |
| 20260831194727 | 20 | 348 | 0.0 | 1.6 | 0.00 | 0.99 | 0.99 | 71 | 1013.8 |
| 20260831194227 | 20 | 4 | 0.0 | 0.0 | 0.00 | 0.99 | 0.99 | 71 | 1013.8 |
| 20260831193726 | 20 | 4 | 0.0 | 4.8 | 0.00 | 0.99 | 0.99 | 71 | 1013.8 |
| 20260831193226 | 20 | 334 | 4.8 | 4.8 | 0.00 | 0.99 | 0.99 | 71 | 1013.7 |
| 20260831192726 | 20 | 45 | 0.0 | 6.4 | 0.00 | 0.99 | 0.99 | 71 | 1013.6 |
| 20260831192226 | 20 | 85 | 0.0 | 0.0 | 0.00 | 0.99 | 0.99 | 71 | 1013.6 |
| 20260831191725 | 20 | 85 | 0.0 | 0.0 | 0.00 | 0.99 | 0.99 | 71 | 1013.5 |
| 20260831191225 | 20 | 85 | 0.0 | 0.0 | 0.00 | 0.99 | 0.99 | 71 | 1013.4 |
| 20260831190725 | 20 | 85 | 0.0 | 0.0 | 0.00 | 0.99 | 0.99 | 71 | 1013.4 |
| 20260831190224 | 20 | 85 | 0.0 | 0.0 | 0.00 | 0.99 | 0.99 | 70 | 1013.3 |
| 20260831185724 | 20 | 85 | 0.0 | 0.0 | 0.00 | 0.99 | 0.99 | 70 | 1013.3 |
| 20260831185224 | 20 | 85 | 0.0 | 0.0 | 0.00 | 0.99 | 0.99 | 71 | 1013.1 |
| 20260831184724 | 20 | 85 | 0.0 | 0.0 | 0.00 | 0.99 | 0.99 | 70 | 1013.1 |
| 20260831184223 | 20 | 85 | 0.0 | 3.2 | 0.00 | 0.99 | 0.99 | 70 | 1013.0 |
| 20260831183723 | 20 | 39 | 0.0 | 4.8 | 0.00 | 0.99 | 0.99 | 69 | 1013.0 |
| 20260831183223 | 21 | 81 | 0.0 | 4.8 | 0.00 | 0.99 | 0.99 | 68 | 1012.8 |
| 20260831182723 | 21 | 85 | 0.0 | 4.8 | 0.00 | 0.99 | 0.99 | 68 | 1012.9 |
| 20260831182222 | 21 | 36 | 0.0 | 6.4 | 0.00 | 0.99 | 0.99 | 67 | 1012.7 |
| 20260831181722 | 21 | 87 | 6.4 | 6.4 | 0.00 | 0.99 | 0.99 | 67 | 1012.5 |
| 20260831181222 | 21 | 122 | 3.2 | 11.3 | 0.00 | 0.99 | 0.99 | 66 | 1012.5 |
| 20260831180721 | 21 | 57 | 3.2 | 11.3 | 0.00 | 0.99 | 0.99 | 65 | 1012.6 |
| 20260831180221 | 21 | 91 | 4.8 | 14.5 | 0.00 | 0.99 | 0.99 | 64 | 1012.4 |
| 20260831175721 | 21 | 135 | 6.4 | 11.3 | 0.00 | 0.99 | 0.99 | 63 | 1012.3 |
| 20260831175221 | 22 | 101 | 4.8 | 6.4 | 0.00 | 0.99 | 0.99 | 63 | 1012.1 |
| 20260831174720 | 22 | 43 | 1.6 | 9.7 | 0.00 | 0.99 | 0.99 | 62 | 1012.1 |
| 20260831174220 | 22 | 77 | 0.0 | 1.6 | 0.00 | 0.99 | 0.99 | 62 | 1011.9 |
| 20260831173720 | 22 | 45 | 0.0 | 8.0 | 0.00 | 0.99 | 0.99 | 61 | 1011.8 |
| 20260831173219 | 22 | 12 | 1.6 | 8.0 | 0.00 | 0.99 | 0.99 | 61 | 1011.8 |
| 20260831172719 | 22 | 296 | 0.0 | 11.3 | 0.00 | 0.99 | 0.99 | 61 | 1011.4 |
| 20260831172219 | 22 | 313 | 0.0 | 9.7 | 0.00 | 0.99 | 0.99 | 61 | 1011.4 |
| 20260831171719 | 22 | 324 | 6.4 | 8.0 | 0.00 | 0.99 | 0.99 | 61 | 1011.5 |
| 20260831171218 | 22 | 4 | 1.6 | 19.3 | 0.00 | 0.99 | 0.99 | 60 | 1011.6 |
| 20260831170718 | 22 | 157 | 1.6 | 9.7 | 0.00 | 0.99 | 0.99 | 60 | 1011.5 |
| 20260831170218 | 22 | 12 | 0.0 | 11.3 | 0.00 | 0.99 | 0.99 | 59 | 1011.4 |
| 20260831165717 | 22 | 15 | 8.0 | 14.5 | 0.00 | 0.99 | 0.99 | 59 | 1011.6 |
| 20260831165217 | 23 | 132 | 3.2 | 11.3 | 0.00 | 0.99 | 0.99 | 58 | 1011.5 |
| 20260831164717 | 23 | 68 | 6.4 | 16.1 | 0.00 | 0.99 | 0.99 | 58 | 1011.6 |
| 20260831164217 | 23 | 32 | 3.2 | 12.9 | 0.00 | 0.99 | 0.99 | 57 | 1011.5 |
| 20260831163716 | 23 | 104 | 3.2 | 16.1 | 0.00 | 0.99 | 0.99 | 58 | 1011.4 |
| 20260831163216 | 23 | 21 | 1.6 | 11.3 | 0.00 | 0.99 | 0.99 | 59 | 1011.2 |
| 20260831162716 | 23 | 36 | 1.6 | 16.1 | 0.00 | 0.99 | 0.99 | 59 | 1011.2 |
| 20260831162215 | 23 | 108 | 0.0 | 12.9 | 0.00 | 0.99 | 0.99 | 59 | 1010.9 |
| 20260831161715 | 24 | 322 | 3.2 | 16.1 | 0.00 | 0.99 | 0.99 | 58 | 1010.9 |
| 20260831161215 | 23 | 99 | 1.6 | 16.1 | 0.00 | 0.99 | 0.99 | 58 | 1010.8 |
| 20260831160715 | 23 | 119 | 4.8 | 16.1 | 0.00 | 0.99 | 0.99 | 59 | 1010.8 |
| 20260831160214 | 23 | 81 | 9.7 | 11.3 | 0.00 | 0.99 | 0.99 | 59 | 1010.7 |
| 20260831155714 | 23 | 118 | 9.7 | 14.5 | 0.00 | 0.99 | 0.99 | 60 | 1010.7 |
| 20260831155214 | 22 | 28 | 0.0 | 16.1 | 0.00 | 0.99 | 0.99 | 62 | 1010.7 |
| 20260831154713 | 22 | 63 | 8.0 | 16.1 | 0.00 | 0.99 | 0.99 | 61 | 1010.9 |
| 20260831154213 | 22 | 282 | 8.0 | 12.9 | 0.03 | 0.99 | 0.99 | 61 | 1010.7 |
| 20260831153713 | 22 | 307 | 4.8 | 12.9 | 0.03 | 0.99 | 0.99 | 63 | 1010.7 |
| 20260831153213 | 22 | 98 | 1.6 | 14.5 | 0.03 | 0.99 | 0.99 | 65 | 1010.7 |
| 20260831152712 | 21 | 97 | 9.7 | 17.7 | 0.05 | 0.99 | 0.99 | 68 | 1010.9 |
| 20260831152212 | 21 | 32 | 4.8 | 17.7 | 0.05 | 0.99 | 0.99 | 70 | 1010.9 |
| 20260831151712 | 21 | 157 | 0.0 | 9.7 | 0.08 | 0.99 | 0.99 | 72 | 1011.0 |
| 20260831151211 | 21 | 78 | 0.0 | 6.4 | 0.08 | 0.99 | 0.99 | 72 | 1010.8 |
| 20260831150711 | 21 | 4 | 0.0 | 9.7 | 0.08 | 0.99 | 0.99 | 72 | 1010.8 |
| 20260831150211 | 21 | 30 | 1.6 | 11.3 | 0.10 | 0.99 | 0.99 | 72 | 1010.9 |
| 20260831145711 | 21 | 90 | 4.8 | 11.3 | 0.10 | 0.99 | 0.99 | 71 | 1010.8 |
| 20260831145210 | 21 | 119 | 3.2 | 9.7 | 0.13 | 0.99 | 0.99 | 71 | 1010.8 |
| 20260831144710 | 22 | 35 | 0.0 | 9.7 | 0.13 | 0.99 | 0.99 | 70 | 1010.8 |
| 20260831144210 | 22 | 122 | 8.0 | 11.3 | 0.13 | 0.97 | 0.97 | 69 | 1010.9 |
| 20260831143709 | 22 | 52 | 0.0 | 8.0 | 0.13 | 0.97 | 0.97 | 69 | 1010.7 |
| 20260831143209 | 22 | 351 | 4.8 | 11.3 | 0.13 | 0.97 | 0.97 | 67 | 1010.6 |
| 20260831142709 | 22 | 75 | 3.2 | 14.5 | 0.10 | 0.94 | 0.94 | 66 | 1010.6 |
| 20260831142209 | 22 | 299 | 3.2 | 11.3 | 0.10 | 0.94 | 0.94 | 68 | 1010.7 |
| 20260831141708 | 22 | 337 | 6.4 | 17.7 | 0.08 | 0.91 | 0.91 | 69 | 1010.8 |
| 20260831141208 | 22 | 296 | 4.8 | 12.9 | 0.08 | 0.91 | 0.91 | 68 | 1010.7 |
| 20260831140708 | 22 | 322 | 0.0 | 9.7 | 0.08 | 0.91 | 0.91 | 71 | 1010.9 |
| 20260831140207 | 21 | 105 | 0.0 | 8.0 | 0.05 | 0.89 | 0.89 | 74 | 1011.0 |
| 20260831135707 | 21 | 91 | 0.0 | 14.5 | 0.05 | 0.89 | 0.89 | 74 | 1011.1 |
| 20260831135207 | 21 | 119 | 8.0 | 20.9 | 0.03 | 0.86 | 0.86 | 70 | 1010.9 |
| 20260831134707 | 22 | 351 | 6.4 | 17.7 | 0.03 | 0.86 | 0.86 | 68 | 1011.3 |
| 20260831134206 | 22 | 292 | 4.8 | 17.7 | 0.00 | 0.84 | 0.84 | 66 | 1010.9 |
| 20260831133706 | 23 | 303 | 4.8 | 16.1 | 0.00 | 0.84 | 0.84 | 59 | 1010.9 |
| 20260831133206 | 23 | 334 | 1.6 | 16.1 | 0.00 | 0.84 | 0.84 | 56 | 1010.6 |
| 20260831132705 | 25 | 18 | 4.8 | 20.9 | 0.00 | 0.84 | 0.84 | 53 | 1010.5 |
| 20260831132205 | 25 | 203 | 3.2 | 14.5 | 0.00 | 0.84 | 0.84 | 52 | 1010.5 |
| 20260831131705 | 25 | 296 | 4.8 | 24.1 | 0.00 | 0.84 | 0.84 | 51 | 1010.6 |
| 20260831131205 | 25 | 324 | 8.0 | 17.7 | 0.00 | 0.84 | 0.84 | 52 | 1010.6 |
| 20260831130704 | 25 | 330 | 4.8 | 20.9 | 0.00 | 0.84 | 0.84 | 51 | 1010.7 |
| 20260831130204 | 25 | 261 | 3.2 | 27.4 | 0.00 | 0.84 | 0.84 | 51 | 1010.7 |
| 20260831125704 | 25 | 29 | 9.7 | 17.7 | 0.00 | 0.84 | 0.84 | 52 | 1010.7 |
| 20260831125204 | 23 | 123 | 4.8 | 17.7 | 0.00 | 0.84 | 0.84 | 55 | 1010.8 |
| 20260831124703 | 23 | 358 | 8.0 | 16.1 | 0.00 | 0.84 | 0.84 | 55 | 1010.9 |
| 20260831124203 | 23 | 60 | 6.4 | 20.9 | 0.00 | 0.84 | 0.84 | 55 | 1011.0 |
| 20260831123703 | 24 | 344 | 8.0 | 22.5 | 0.00 | 0.84 | 0.84 | 54 | 1010.9 |
| 20260831123202 | 25 | 18 | 1.6 | 14.5 | 0.00 | 0.84 | 0.84 | 52 | 1010.9 |
| 20260831122702 | 24 | 98 | 9.7 | 25.7 | 0.00 | 0.84 | 0.84 | 51 | 1010.8 |
| 20260831122202 | 23 | 19 | 9.7 | 17.7 | 0.00 | 0.84 | 0.84 | 54 | 1010.9 |
| 20260831121702 | 22 | 90 | 8.0 | 16.1 | 0.00 | 0.84 | 0.84 | 59 | 1010.9 |
| 20260831121201 | 22 | 323 | 14.5 | 16.1 | 0.00 | 0.84 | 0.84 | 60 | 1010.9 |
| 20260831120701 | 22 | 35 | 1.6 | 14.5 | 0.00 | 0.84 | 0.84 | 63 | 1010.9 |
| 20260831120201 | 22 | 310 | 3.2 | 14.5 | 0.00 | 0.84 | 0.84 | 64 | 1011.0 |
| 20260831115700 | 22 | 105 | 3.2 | 11.3 | 0.00 | 0.84 | 0.84 | 64 | 1011.0 |
| 20260831115200 | 22 | 57 | 4.8 | 11.3 | 0.00 | 0.84 | 0.84 | 65 | 1011.1 |
| 20260831114700 | 22 | 275 | 1.6 | 14.5 | 0.00 | 0.84 | 0.84 | 66 | 1011.1 |
| 20260831114200 | 21 | 310 | 3.2 | 14.5 | 0.00 | 0.84 | 0.84 | 68 | 1011.2 |
| 20260831113659 | 22 | 322 | 6.4 | 12.9 | 0.00 | 0.84 | 0.84 | 66 | 1011.3 |
| 20260831113159 | 22 | 32 | 8.0 | 19.3 | 0.00 | 0.84 | 0.84 | 62 | 1011.3 |
| 20260831112659 | 23 | 106 | 1.6 | 17.7 | 0.00 | 0.84 | 0.84 | 58 | 1011.2 |
| 20260831112158 | 23 | 74 | 0.0 | 17.7 | 0.00 | 0.84 | 0.84 | 56 | 1010.9 |
| 20260831111658 | 23 | 284 | 9.7 | 22.5 | 0.00 | 0.84 | 0.84 | 55 | 1010.9 |
| 20260831111158 | 23 | 288 | 3.2 | 14.5 | 0.00 | 0.84 | 0.84 | 56 | 1010.9 |
| 20260831110658 | 23 | 343 | 6.4 | 19.3 | 0.00 | 0.84 | 0.84 | 57 | 1010.9 |
| 20260831110157 | 22 | 5 | 4.8 | 14.5 | 0.00 | 0.84 | 0.84 | 58 | 1011.0 |
| 20260831105657 | 22 | 303 | 12.9 | 20.9 | 0.00 | 0.84 | 0.84 | 60 | 1011.0 |
| 20260831105157 | 22 | 106 | 4.8 | 22.5 | 0.00 | 0.84 | 0.84 | 62 | 1011.0 |
| 20260831104656 | 22 | 21 | 4.8 | 25.7 | 0.00 | 0.84 | 0.84 | 61 | 1011.1 |
| 20260831104156 | 22 | 341 | 25.7 | 25.7 | 0.00 | 0.84 | 0.84 | 60 | 1011.0 |
| 20260831103656 | 22 | 21 | 3.2 | 16.1 | 0.00 | 0.84 | 0.84 | 62 | 1010.9 |
| 20260831103156 | 21 | 22 | 6.4 | 12.9 | 0.00 | 0.84 | 0.84 | 63 | 1011.0 |
| 20260831102655 | 21 | 33 | 3.2 | 16.1 | 0.00 | 0.84 | 0.84 | 63 | 1011.1 |
| 20260831102155 | 21 | 313 | 4.8 | 20.9 | 0.00 | 0.84 | 0.84 | 63 | 1011.0 |
| 20260831101655 | 21 | 209 | 9.7 | 17.7 | 0.00 | 0.84 | 0.84 | 64 | 1010.9 |
| 20260831101154 | 22 | 338 | 9.7 | 16.1 | 0.00 | 0.84 | 0.84 | 65 | 1011.0 |
| 20260831100654 | 21 | 195 | 0.0 | 14.5 | 0.00 | 0.84 | 0.84 | 65 | 1011.0 |
| 20260831100154 | 21 | 150 | 4.8 | 17.7 | 0.00 | 0.84 | 0.84 | 65 | 1011.1 |
| 20260831095654 | 21 | 85 | 3.2 | 17.7 | 0.00 | 0.84 | 0.84 | 66 | 1011.1 |
| 20260831095153 | 21 | 47 | 8.0 | 19.3 | 0.00 | 0.84 | 0.84 | 66 | 1011.1 |
| 20260831094653 | 21 | 358 | 6.4 | 19.3 | 0.00 | 0.84 | 0.84 | 66 | 1011.1 |
| 20260831094153 | 21 | 91 | 3.2 | 17.7 | 0.00 | 0.84 | 0.84 | 66 | 1011.1 |
| 20260831093652 | 21 | 358 | 4.8 | 17.7 | 0.00 | 0.84 | 0.84 | 66 | 1011.0 |
| 20260831093152 | 21 | 106 | 0.0 | 16.1 | 0.00 | 0.84 | 0.84 | 66 | 1010.9 |
| 20260831092652 | 21 | 9 | 1.6 | 16.1 | 0.00 | 0.84 | 0.84 | 67 | 1011.0 |
| 20260831092152 | 21 | 127 | 1.6 | 17.7 | 0.00 | 0.84 | 0.84 | 68 | 1010.9 |
| 20260831091651 | 21 | 25 | 8.0 | 12.9 | 0.00 | 0.84 | 0.84 | 67 | 1010.9 |
| 20260831091151 | 21 | 53 | 4.8 | 16.1 | 0.00 | 0.84 | 0.84 | 67 | 1011.0 |
| 20260831090651 | 21 | 67 | 4.8 | 20.9 | 0.00 | 0.84 | 0.84 | 67 | 1011.0 |
| 20260831090150 | 21 | 32 | 3.2 | 24.1 | 0.00 | 0.84 | 0.84 | 66 | 1011.0 |
| 20260831085650 | 21 | 320 | 8.0 | 17.7 | 0.00 | 0.84 | 0.84 | 67 | 1010.9 |
| 20260831085150 | 21 | 9 | 4.8 | 19.3 | 0.00 | 0.84 | 0.84 | 66 | 1010.9 |
| 20260831084650 | 21 | 11 | 6.4 | 19.3 | 0.00 | 0.84 | 0.84 | 68 | 1010.7 |
| 20260831084149 | 21 | 271 | 1.6 | 16.1 | 0.00 | 0.84 | 0.84 | 69 | 1010.8 |
| 20260831083649 | 21 | 189 | 1.6 | 14.5 | 0.00 | 0.84 | 0.84 | 69 | 1010.8 |
| 20260831083149 | 20 | 129 | 14.5 | 22.5 | 0.00 | 0.84 | 0.84 | 69 | 1010.8 |
| 20260831082648 | 20 | 310 | 14.5 | 14.5 | 0.00 | 0.84 | 0.84 | 71 | 1010.8 |
| 20260831082148 | 20 | 315 | 9.7 | 22.5 | 0.00 | 0.84 | 0.84 | 70 | 1010.8 |
| 20260831081648 | 20 | 99 | 8.0 | 16.1 | 0.00 | 0.84 | 0.84 | 71 | 1010.7 |
| 20260831081148 | 20 | 340 | 9.7 | 20.9 | 0.00 | 0.84 | 0.84 | 71 | 1010.7 |
| 20260831080647 | 20 | 53 | 3.2 | 16.1 | 0.00 | 0.84 | 0.84 | 72 | 1010.6 |
| 20260831080147 | 20 | 36 | 3.2 | 17.7 | 0.00 | 0.84 | 0.84 | 72 | 1010.6 |
| 20260831075647 | 20 | 338 | 9.7 | 16.1 | 0.00 | 0.84 | 0.84 | 73 | 1010.6 |
| 20260831075146 | 20 | 23 | 3.2 | 11.3 | 0.00 | 0.84 | 0.84 | 76 | 1010.5 |
| 20260831074646 | 20 | 56 | 3.2 | 14.5 | 0.00 | 0.84 | 0.84 | 76 | 1010.5 |
| 20260831074146 | 20 | 88 | 9.7 | 17.7 | 0.00 | 0.84 | 0.84 | 76 | 1010.5 |
| 20260831073646 | 20 | 19 | 4.8 | 16.1 | 0.00 | 0.84 | 0.84 | 78 | 1010.6 |
| 20260831073145 | 20 | 284 | 6.4 | 12.9 | 0.00 | 0.84 | 0.84 | 78 | 1010.4 |
| 20260831072645 | 20 | 84 | 1.6 | 12.9 | 0.00 | 0.84 | 0.84 | 79 | 1010.7 |
| 20260831072145 | 20 | 5 | 9.7 | 16.1 | 0.00 | 0.84 | 0.84 | 79 | 1010.7 |
| 20260831071645 | 20 | 265 | 4.8 | 14.5 | 0.00 | 0.84 | 0.84 | 80 | 1010.7 |
| 20260831071144 | 20 | 9 | 1.6 | 9.7 | 0.00 | 0.84 | 0.84 | 80 | 1010.6 |
| 20260831070644 | 20 | 64 | 0.0 | 12.9 | 0.00 | 0.84 | 0.84 | 80 | 1010.7 |
| 20260831070144 | 20 | 358 | 4.8 | 11.3 | 0.00 | 0.84 | 0.84 | 80 | 1010.7 |
| 20260831065643 | 20 | 77 | 0.0 | 8.0 | 0.00 | 0.84 | 0.84 | 81 | 1010.6 |
| 20260831065143 | 20 | 5 | 1.6 | 12.9 | 0.00 | 0.84 | 0.84 | 81 | 1010.6 |
| 20260831064643 | 19 | 331 | 0.0 | 9.7 | 0.00 | 0.84 | 0.84 | 81 | 1010.5 |
| 20260831064143 | 20 | 292 | 1.6 | 9.7 | 0.00 | 0.84 | 0.84 | 81 | 1010.6 |
| 20260831063642 | 19 | 1 | 4.8 | 11.3 | 0.00 | 0.84 | 0.84 | 81 | 1010.6 |
| 20260831063142 | 19 | 305 | 1.6 | 6.4 | 0.00 | 0.84 | 0.84 | 82 | 1010.5 |
| 20260831062642 | 19 | 5 | 0.0 | 6.4 | 0.00 | 0.84 | 0.84 | 83 | 1010.5 |
| 20260831062141 | 19 | 267 | 1.6 | 4.8 | 0.00 | 0.84 | 0.84 | 83 | 1010.6 |
| 20260831061641 | 19 | 334 | 3.2 | 6.4 | 0.00 | 0.84 | 0.84 | 83 | 1010.6 |
| 20260831061141 | 19 | 292 | 0.0 | 4.8 | 0.00 | 0.84 | 0.84 | 84 | 1010.4 |
| 20260831060641 | 19 | 30 | 0.0 | 4.8 | 0.00 | 0.84 | 0.84 | 84 | 1010.3 |
| 20260831060140 | 19 | 329 | 0.0 | 6.4 | 0.00 | 0.84 | 0.84 | 84 | 1010.4 |
| 20260831055640 | 19 | 26 | 1.6 | 3.2 | 0.00 | 0.84 | 0.84 | 84 | 1010.3 |
| 20260831055140 | 19 | 8 | 0.0 | 9.7 | 0.00 | 0.84 | 0.84 | 84 | 1010.2 |
| 20260831054639 | 19 | 2 | 0.0 | 6.4 | 0.00 | 0.84 | 0.84 | 84 | 1010.2 |
| 20260831054139 | 19 | 77 | 1.6 | 8.0 | 0.00 | 0.84 | 0.84 | 84 | 1010.1 |
| 20260831053639 | 19 | 282 | 0.0 | 4.8 | 0.00 | 0.84 | 0.84 | 85 | 1010.1 |
| 20260831053139 | 19 | 7 | 0.0 | 3.2 | 0.00 | 0.84 | 0.84 | 85 | 1010.1 |
| 20260831052638 | 19 | 9 | 3.2 | 8.0 | 0.00 | 0.84 | 0.84 | 86 | 1010.0 |
| 20260831052138 | 18 | 351 | 0.0 | 3.2 | 0.00 | 0.84 | 0.84 | 86 | 1009.9 |
| 20260831051638 | 18 | 42 | 0.0 | 8.0 | 0.00 | 0.84 | 0.84 | 86 | 1009.9 |
| 20260831051137 | 18 | 340 | 0.0 | 8.0 | 0.00 | 0.84 | 0.84 | 86 | 1010.0 |
| 20260831050637 | 18 | 343 | 0.0 | 11.3 | 0.00 | 0.84 | 0.84 | 86 | 1009.9 |
| 20260831050137 | 18 | 165 | 3.2 | 8.0 | 0.00 | 0.84 | 0.84 | 86 | 1009.9 |
| 20260831045637 | 18 | 357 | 4.8 | 9.7 | 0.00 | 0.84 | 0.84 | 86 | 1009.9 |
| 20260831045136 | 18 | 324 | 3.2 | 8.0 | 0.00 | 0.84 | 0.84 | 86 | 1009.9 |
| 20260831044636 | 18 | 268 | 0.0 | 0.0 | 0.03 | 0.84 | 0.84 | 86 | 1009.9 |
| 20260831044136 | 18 | 268 | 0.0 | 8.0 | 0.03 | 0.84 | 0.84 | 86 | 1009.8 |
| 20260831043635 | 18 | 357 | 0.0 | 8.0 | 0.03 | 0.84 | 0.84 | 86 | 1009.7 |
| 20260831043135 | 18 | 337 | 4.8 | 8.0 | 0.03 | 0.84 | 0.84 | 86 | 1009.7 |
| 20260831042635 | 18 | 35 | 0.0 | 11.3 | 0.03 | 0.84 | 0.84 | 85 | 1009.6 |
| 20260831042135 | 18 | 125 | 0.0 | 8.0 | 0.03 | 0.84 | 0.84 | 85 | 1009.6 |
| 20260831041634 | 19 | 32 | 0.0 | 6.4 | 0.03 | 0.84 | 0.84 | 84 | 1009.5 |
| 20260831041134 | 18 | 345 | 0.0 | 3.2 | 0.05 | 0.84 | 0.84 | 84 | 1009.6 |
| 20260831040634 | 18 | 341 | 0.0 | 0.0 | 0.08 | 0.84 | 0.84 | 84 | 1009.5 |
| 20260831040133 | 18 | 341 | 0.0 | 6.4 | 0.13 | 0.84 | 0.84 | 84 | 1009.5 |
| 20260831035633 | 18 | 299 | 0.0 | 3.2 | 0.15 | 0.84 | 0.84 | 84 | 1009.5 |
| 20260831035133 | 19 | 338 | 0.0 | 6.4 | 0.18 | 0.84 | 0.84 | 83 | 1009.4 |
| 20260831034633 | 18 | 296 | 0.0 | 0.0 | 0.18 | 0.81 | 0.81 | 83 | 1009.4 |
| 20260831034132 | 18 | 296 | 0.0 | 0.0 | 0.20 | 0.81 | 0.81 | 83 | 1009.5 |
| 20260831033632 | 18 | 296 | 0.0 | 0.0 | 0.23 | 0.81 | 0.81 | 83 | 1009.5 |
| 20260831033132 | 18 | 296 | 0.0 | 6.4 | 0.25 | 0.81 | 0.81 | 83 | 1009.4 |
| 20260831032631 | 18 | 340 | 0.0 | 0.0 | 0.25 | 0.81 | 0.81 | 83 | 1009.5 |
| 20260831032131 | 18 | 340 | 0.0 | 0.0 | 0.25 | 0.81 | 0.81 | 83 | 1009.4 |
| 20260831031631 | 18 | 340 | 0.0 | 0.0 | 0.25 | 0.81 | 0.81 | 83 | 1009.5 |
| 20260831031131 | 18 | 340 | 0.0 | 0.0 | 0.23 | 0.79 | 0.79 | 83 | 1009.5 |
| 20260831030630 | 18 | 340 | 0.0 | 6.4 | 0.20 | 0.76 | 0.76 | 82 | 1009.5 |
| 20260831030130 | 18 | 319 | 4.8 | 4.8 | 0.20 | 0.71 | 0.71 | 82 | 1009.5 |
| 20260831025630 | 18 | 18 | 0.0 | 4.8 | 0.20 | 0.69 | 0.69 | 82 | 1009.6 |
| 20260831025129 | 18 | 118 | 0.0 | 3.2 | 0.20 | 0.66 | 0.66 | 82 | 1009.5 |
| 20260831024629 | 18 | 0 | 3.2 | 3.2 | 0.23 | 0.64 | 0.64 | 82 | 1009.5 |
| 20260831024129 | 18 | 358 | 0.0 | 3.2 | 0.25 | 0.61 | 0.61 | 82 | 1009.5 |
| 20260831023629 | 18 | 358 | 0.0 | 3.2 | 0.28 | 0.58 | 0.58 | 82 | 1009.4 |
| 20260831023128 | 18 | 2 | 0.0 | 6.4 | 0.28 | 0.56 | 0.56 | 81 | 1009.5 |
| 20260831022628 | 19 | 326 | 0.0 | 0.0 | 0.33 | 0.56 | 0.56 | 81 | 1009.4 |
| 20260831022128 | 18 | 326 | 0.0 | 4.8 | 0.38 | 0.56 | 0.56 | 80 | 1009.4 |
| 20260831021627 | 19 | 347 | 0.0 | 3.2 | 0.41 | 0.56 | 0.56 | 80 | 1009.5 |
| 20260831021127 | 19 | 322 | 0.0 | 0.0 | 0.41 | 0.56 | 0.56 | 80 | 1009.5 |
| 20260831020627 | 19 | 322 | 0.0 | 0.0 | 0.41 | 0.56 | 0.56 | 80 | 1009.7 |
| 20260831020127 | 19 | 322 | 0.0 | 0.0 | 0.36 | 0.51 | 0.51 | 80 | 1009.5 |
| 20260831015626 | 19 | 322 | 0.0 | 6.4 | 0.33 | 0.48 | 0.48 | 80 | 1009.4 |
| 20260831015126 | 20 | 358 | 3.2 | 6.4 | 0.30 | 0.46 | 0.46 | 78 | 1009.8 |
| 20260831014626 | 20 | 1 | 0.0 | 3.2 | 0.28 | 0.41 | 0.41 | 78 | 1009.7 |
| 20260831014125 | 20 | 315 | 0.0 | 0.0 | 0.23 | 0.36 | 0.36 | 78 | 1009.7 |
| 20260831013625 | 20 | 315 | 0.0 | 4.8 | 0.18 | 0.30 | 0.30 | 76 | 1009.8 |
| 20260831013125 | 20 | 87 | 0.0 | 0.0 | 0.15 | 0.28 | 0.28 | 76 | 1009.7 |
| 20260831012625 | 20 | 87 | 0.0 | 0.0 | 0.13 | 0.23 | 0.23 | 75 | 1009.6 |
| 20260831012124 | 20 | 87 | 0.0 | 0.0 | 0.08 | 0.18 | 0.18 | 75 | 1009.6 |
| 20260831011624 | 20 | 87 | 0.0 | 0.0 | 0.05 | 0.15 | 0.15 | 74 | 1009.5 |
| 20260831011124 | 20 | 87 | 0.0 | 0.0 | 0.08 | 0.15 | 0.15 | 74 | 1009.4 |
| 20260831010624 | 21 | 87 | 0.0 | 0.0 | 0.08 | 0.15 | 0.15 | 74 | 1009.2 |
| 20260831010123 | 21 | 87 | 0.0 | 0.0 | 0.10 | 0.15 | 0.15 | 74 | 1009.2 |
| 20260831005623 | 21 | 87 | 0.0 | 0.0 | 0.10 | 0.15 | 0.15 | 74 | 1009.3 |
| 20260831005123 | 21 | 87 | 0.0 | 0.0 | 0.13 | 0.15 | 0.15 | 73 | 1009.3 |
| 20260831004622 | 21 | 87 | 0.0 | 0.0 | 0.10 | 0.13 | 0.13 | 73 | 1009.3 |
| 20260831004122 | 21 | 87 | 0.0 | 0.0 | 0.13 | 0.13 | 0.13 | 73 | 1009.5 |
| 20260831003622 | 21 | 87 | 0.0 | 0.0 | 0.13 | 0.13 | 0.13 | 72 | 1009.4 |
| 20260831003122 | 21 | 87 | 0.0 | 0.0 | 0.13 | 0.13 | 0.13 | 72 | 1009.6 |
| 20260831002621 | 21 | 87 | 0.0 | 0.0 | 0.10 | 0.10 | 0.10 | 71 | 1009.6 |
| 20260831002121 | 21 | 87 | 0.0 | 0.0 | 0.10 | 0.10 | 0.10 | 70 | 1009.7 |
| 20260831001621 | 21 | 87 | 0.0 | 0.0 | 0.10 | 0.10 | 0.10 | 69 | 1009.8 |
| 20260831001120 | 21 | 87 | 0.0 | 0.0 | 0.08 | 0.08 | 0.08 | 68 | 1009.8 |
| 20260831000620 | 21 | 87 | 0.0 | 0.0 | 0.08 | 0.08 | 0.08 | 67 | 1009.8 |
| 20260831000120 | 21 | 87 | 0.0 | 0.0 | 0.05 | 0.05 | 0.05 | 66 | 1009.8 |
| 20260830235620 | 21 | 87 | 0.0 | 0.0 | 0.05 | 0.05 | 0.05 | 65 | 1009.7 |
| 20260830235119 | 21 | 87 | 0.0 | 0.0 | 0.03 | 0.03 | 0.03 | 64 | 1009.7 |
| 20260830234619 | 21 | 87 | 0.0 | 0.0 | 0.03 | 0.03 | 0.03 | 63 | 1009.7 |
| 20260830234119 | 22 | 87 | 0.0 | 3.2 | 0.00 | 0.00 | 0.00 | 61 | 1009.6 |
| 20260830233618 | 22 | 122 | 0.0 | 0.0 | 0.00 | 0.00 | 0.00 | 60 | 1009.5 |
| 20260830233118 | 22 | 122 | 0.0 | 0.0 | 0.00 | 0.00 | 0.00 | 59 | 1009.4 |
| 20260830232618 | 22 | 122 | 0.0 | 1.6 | 0.00 | 0.00 | 0.00 | 59 | 1009.4 |